Cape Moreton Observation History
Time Wind Speed Temp Pressure Rel. Hum Rain
25/01:00pm ENE 11-14 kts 27.2°c 1011.1 hPa 67% 0.2mm
25/12:30pm ENE 10-13 kts 27.0°c 1011.3 hPa 66% 0.2mm
25/12:00pm ENE 11-13 kts 26.9°c 1011.8 hPa 67% 0.2mm
25/11:30am ENE 10-13 kts 27.9°c 1012.0 hPa 67% 0.2mm
25/11:00am ENE 10-12 kts 27.3°c 1012.2 hPa 66% 0.2mm
25/10:30am ENE 10-13 kts 26.1°c 1012.3 hPa 69% 0.2mm
25/10:00am ENE 10-13 kts 26.2°c 1012.2 hPa 70% 0.2mm
25/09:30am ENE 13-15 kts 25.2°c 1012.3 hPa 72% 0.2mm
25/09:00am ENE 14-16 kts 25.2°c 1012.4 hPa 74% 13.6mm
25/08:30am ENE 13-16 kts 24.5°c 1012.4 hPa 77% 13.6mm
25/08:00am ENE 13-19 kts 24.2°c 1012.3 hPa 77% 13.6mm
25/07:30am ENE 15-21 kts 23.5°c 1012.1 hPa 77% 13.6mm
25/07:00am ENE 15-21 kts 23.7°c 1012.1 hPa 75% 13.6mm
25/06:30am ENE 12-15 kts 23.8°c 1012.0 hPa 74% 13.6mm
25/06:00am ENE 13-16 kts 23.7°c 1012.0 hPa 76% 13.6mm
25/05:30am ENE 14-18 kts 22.9°c 1011.8 hPa 79% 13.6mm
25/05:00am ENE 13-16 kts 23.4°c 1011.5 hPa 76% 13.6mm
25/04:30am NE 7-9 kts 22.2°c 1011.4 hPa 83% 13.6mm
25/04:00am E 14-18 kts 22.4°c 1011.0 hPa 86% 13.6mm
25/03:30am E 13-16 kts 22.8°c 1010.9 hPa 84% 13.6mm
25/03:00am ENE 11-14 kts 22.8°c 1011.1 hPa 84% 13.6mm
25/02:30am ENE 13-17 kts 22.2°c 1011.2 hPa 86% 13.6mm
25/02:00am ESE 18-24 kts 21.8°c 1011.2 hPa 89% 13.6mm
25/01:40am SE 6-21 kts 22.7°c 1011.4 hPa 88% 13.6mm
25/01:30am NE 2-4 kts 22.8°c 1011.8 hPa 87% 13.6mm
25/01:00am SE 5-7 kts 22.9°c 1012.0 hPa 86% 13.6mm
25/12:30am ESE 4-7 kts 23.2°c 1012.5 hPa 85% 13.6mm
25/12:00am ENE 5-6 kts 23.0°c 1012.9 hPa 83% 13.6mm
Time Wind Speed Temp Pressure Rel. Hum Rain
24/11:30pm NE 6-8 kts 23.0°c 1013.2 hPa 82% 13.6mm
24/11:00pm NNE 6-9 kts 23.2°c 1013.3 hPa 81% 13.6mm
24/10:30pm NE 7-8 kts 23.1°c 1013.4 hPa 80% 13.6mm
24/10:00pm NE 7-8 kts 23.1°c 1013.7 hPa 83% 13.6mm
24/09:30pm NE 7-8 kts 23.0°c 1013.8 hPa 84% 13.6mm
24/09:00pm NE 8-11 kts 22.9°c 1013.8 hPa 84% 13.6mm
24/08:30pm NE 11-14 kts 23.4°c 1013.7 hPa 81% 13.6mm
24/08:00pm ENE 13-18 kts 23.5°c 1013.4 hPa 78% 13.6mm
24/07:30pm ENE 13-16 kts 23.4°c 1013.2 hPa 80% 13.6mm
24/07:00pm ENE 15-18 kts 23.2°c 1013.1 hPa 81% 13.6mm
24/06:30pm ENE 11-13 kts 22.7°c 1012.9 hPa 85% 13.6mm
24/06:00pm ENE 10-13 kts 22.5°c 1012.8 hPa 89% 13.6mm
24/05:30pm E 11-13 kts 22.0°c 1012.5 hPa 91% 13.6mm
24/05:00pm ENE 11-14 kts 21.8°c 1012.8 hPa 94% 13.6mm
24/04:30pm NNE 6-8 kts 21.9°c 1012.9 hPa 97% 13.6mm
24/04:00pm NE 3-6 kts 21.6°c 1012.9 hPa 96% 13.2mm
24/03:30pm ESE 6-11 kts 21.4°c 1012.9 hPa 93% 10.8mm
24/03:02pm ESE 9-21 kts 23.9°c 1012.6 hPa 83% 4.2mm
24/03:00pm ESE 7-11 kts 24.5°c 1012.7 hPa 80% 4.2mm
24/02:30pm S 7-11 kts 24.0°c 1012.7 hPa 83% 4.2mm
24/02:00pm SSW 9-11 kts 21.9°c 1013.1 hPa 93% 4.2mm
24/01:30pm ESE 11-14 kts 21.7°c 1013.7 hPa 95% 4.0mm
24/01:00pm NNE 4-6 kts 22.5°c 1013.8 hPa 94% 2.4mm
24/12:30pm ENE 11-19 kts 21.6°c 1014.2 hPa 94% 2.4mm
24/12:00pm ESE 12-15 kts 25.3°c 1014.4 hPa 67% 0.0mm
24/11:30am ESE 11-13 kts 27.4°c 1014.4 hPa 59% 0.0mm
24/11:00am ESE 10-13 kts 27.8°c 1014.7 hPa 59% 0.0mm
24/10:30am ESE 10-13 kts 27.0°c 1015.1 hPa 59% 0.0mm
24/10:00am ESE 11-13 kts 26.4°c 1015.3 hPa 58% 0.0mm
24/09:30am ESE 12-14 kts 26.0°c 1015.1 hPa 59% 0.0mm
24/09:00am E 15-19 kts 26.5°c 1015.1 hPa 61% 0.0mm
24/08:30am E 15-20 kts 27.2°c 1015.0 hPa 62% 0.0mm
24/08:00am E 13-18 kts 24.8°c 1014.9 hPa 68% 0.0mm
24/07:30am ESE 15-19 kts 24.4°c 1014.7 hPa 70% 0.0mm
24/07:00am ESE 15-19 kts 24.7°c 1014.4 hPa 67% 0.0mm
24/06:30am ESE 15-18 kts 24.1°c 1014.1 hPa 69% 0.0mm
24/06:00am E 14-19 kts 23.3°c 1013.8 hPa 67% 0.0mm
24/05:30am E 13-17 kts 23.0°c 1013.5 hPa 68% 0.0mm
24/05:00am E 15-18 kts 23.2°c 1013.4 hPa 68% 0.0mm
24/04:30am E 16-18 kts 23.3°c 1013.1 hPa 69% 0.0mm
24/04:00am E 15-19 kts 23.4°c 1013.0 hPa 72% 0.0mm
24/03:30am E 16-20 kts 23.2°c 1012.9 hPa 73% 0.0mm
24/03:00am E 14-18 kts 23.3°c 1013.1 hPa 74% 0.0mm
24/02:30am E 14-18 kts 23.4°c 1013.3 hPa 71% 0.0mm
24/02:00am E 14-17 kts 23.2°c 1013.5 hPa 73% 0.0mm
24/01:30am E 14-17 kts 23.3°c 1013.9 hPa 73% 0.0mm
24/01:00am E 12-15 kts 23.2°c 1014.3 hPa 75% 0.0mm
24/12:30am E 11-14 kts 23.2°c 1014.6 hPa 75% 0.0mm
24/12:00am E 13-16 kts 23.0°c 1014.9 hPa 71% 0.0mm
Time Wind Speed Temp Pressure Rel. Hum Rain
23/11:30pm E 13-15 kts 23.0°c 1015.2 hPa 71% 0.0mm
23/11:00pm E 13-16 kts 22.8°c 1015.4 hPa 66% 0.0mm
23/10:30pm E 15-18 kts 23.0°c 1015.5 hPa 67% 0.0mm
23/10:00pm E 17-21 kts 23.2°c 1015.4 hPa 64% 0.0mm
23/09:30pm ESE 17-20 kts 23.3°c 1015.4 hPa 66% 0.0mm
23/09:00pm E 17-22 kts 23.3°c 1015.6 hPa 67% 0.0mm
23/08:30pm E 15-19 kts 23.4°c 1015.3 hPa 70% 0.0mm
23/08:00pm ESE 17-21 kts 23.4°c 1015.1 hPa 68% 0.0mm
23/07:30pm E 14-19 kts 23.3°c 1014.9 hPa 69% 0.0mm
23/07:00pm E 14-17 kts 23.5°c 1014.7 hPa 67% 0.0mm
23/06:30pm E 13-19 kts 24.0°c 1014.4 hPa 68% 0.0mm
23/06:00pm E 15-20 kts 24.4°c 1014.1 hPa 65% 0.0mm
23/05:30pm ESE 13-16 kts 25.2°c 1014.0 hPa 64% 0.0mm
23/05:00pm ESE 12-16 kts 25.2°c 1013.7 hPa 63% 0.0mm
23/04:30pm E 11-15 kts 25.4°c 1013.6 hPa 62% 0.0mm
23/04:00pm E 12-16 kts 25.8°c 1013.4 hPa 64% 0.0mm
23/03:30pm ESE 11-13 kts 26.4°c 1013.5 hPa 60% 0.0mm
23/03:00pm ESE 11-13 kts 26.7°c 1013.6 hPa 61% 0.0mm
23/02:30pm ESE 12-14 kts 26.6°c 1013.7 hPa 61% 0.0mm
23/02:00pm ESE 11-15 kts 27.4°c 1013.7 hPa 59% 0.0mm
23/01:30pm ESE 10-14 kts 27.7°c 1014.0 hPa 53% 0.0mm
23/01:00pm ESE 10-13 kts 28.0°c 1014.2 hPa 58% 0.0mm
23/12:30pm ESE 11-14 kts 28.1°c 1014.3 hPa 57% 0.0mm
23/12:00pm E 11-13 kts 28.2°c 1014.4 hPa 55% 0.0mm
23/11:30am ESE 10-13 kts 28.0°c 1014.7 hPa 52% 0.0mm
23/11:00am ESE 10-12 kts 27.7°c 1014.9 hPa 53% 0.0mm
23/10:30am E 10-13 kts 28.3°c 1015.0 hPa 57% 0.0mm
23/10:00am E 9-11 kts 27.8°c 1015.0 hPa 57% 0.0mm
23/09:30am E 9-11 kts 28.4°c 1014.9 hPa 57% 0.0mm
23/09:00am E 9-11 kts 27.4°c 1014.6 hPa 55% 0.0mm
23/08:30am E 7-9 kts 26.5°c 1014.5 hPa 61% 0.0mm
23/08:00am E 9-11 kts 26.0°c 1014.5 hPa 63% 0.0mm
23/07:30am E 8-12 kts 25.0°c 1014.5 hPa 64% 0.0mm
23/07:00am E 9-13 kts 24.5°c 1014.2 hPa 66% 0.0mm
23/06:30am ENE 10-13 kts 23.4°c 1013.9 hPa 70% 0.0mm
23/06:00am ENE 8-11 kts 24.5°c 1013.6 hPa 68% 0.0mm
23/05:30am ENE 8-11 kts 22.6°c 1013.3 hPa 73% 0.0mm
23/05:00am ENE 8-11 kts 22.6°c 1013.0 hPa 73% 0.0mm
23/04:30am ENE 9-11 kts 22.6°c 1012.7 hPa 74% 0.0mm
23/04:00am ENE 9-12 kts 22.6°c 1012.5 hPa 72% 0.0mm
23/03:30am ENE 9-11 kts 22.7°c 1012.4 hPa 72% 0.0mm
23/03:00am ENE 8-11 kts 22.9°c 1012.4 hPa 71% 0.0mm
23/02:30am NE 9-11 kts 23.1°c 1012.3 hPa 70% 0.0mm
23/02:00am ENE 9-11 kts 23.2°c 1012.4 hPa 74% 0.0mm
23/01:30am NE 9-11 kts 23.1°c 1012.8 hPa 72% 0.0mm
23/01:00am NE 9-12 kts 22.9°c 1012.9 hPa 72% 0.0mm
23/12:30am NE 10-13 kts 22.9°c 1013.0 hPa 70% 0.0mm
23/12:00am NE 11-14 kts 22.9°c 1013.4 hPa 71% 0.0mm